Grizzly Air Cargo 5122


KSMF
Sacramento International Airport
Sacramento, California, US
PANC
Ted Stevens Anchorage International Airport
Anchorage, Alaska, US

Route Details

Aircraft Information
Primary: Boeing 737-800BCF
Backup: Not Available
Route Data
Distance: 1714nm
Sched. Duration: 3h 58m
Avg. Duration: 4h 34m (+76m)
Times Flown: 3
Recm'd Route: ILA OED J501 HQM J501 TOU J523 YZT J502 ANN J195 BKA J501 JOH WITTI4
Planned Altitude: 38,000ft
Origin Wx: KSMF 290253Z 17010KT 10SM CLR 32/16 A2976 RMK AO2 SLP076 T03170161 53000
Dest. Wx: PANC 290253Z 24008KT 10SM FEW060 SCT090 BKN130 BKN200 22/04 A2995 RMK AO2 SLP141 VIRGA N-E T02170039 56013
Notes:

Financial History
Total Freight: 41,185lbs
Average Load: 13,728lbs/flt
Fuel Used: 66,052lbs
Avg. Fuel Used: 22,017lbs/flt
Fuel Expense: $71,997
Avg. Fuel Expense: $23,999
Avg. Fuel Cost: $1.09/lbs
Total Gross Income: $67,955
Pilot Pay: $527
Total Expenses: $7,495
Total Revenue: $-14,137
Average Revenue: $22,651.75